Location: Newark
(58.8333°N, 23.5833°E)
Time: 00:42:16
(UTC+00:00)

METEOR M2 - Pass Details

Date: 09 December 2019
Orbit: 819 x 827 km, 98.5° (Epoch: 17 January)

Event Time Altitude Azimuth Distance (km) Brightness Sun altitude
Exits shadow 20:01:24 10° 310° (NW) 2,405 ? -46.6°
Drops below altitude 10° 20:01:34 10° 312° (NW) 2,436 ? -46.6°
Sets 20:05:07 0° 336° (NNW) 3,368 ? -47.0°
